| time (UTC) | temp F | wind direction | speed knots | gust knots | rain 1hr in | rain 24hr in | rain mn in | humidity % | barometer mb |
| 20260831170107 | 62 | 232 | 7.8 | 17.4 | 0.01 | 0.10 | 0.10 | 85 | 1011.8 |
| 20260831165600 | 62 | 238 | 9.6 | 17.4 | 0.01 | 0.10 | 0.10 | 85 | 1011.8 |
| 20260831165057 | 62 | 244 | 6.1 | 13.9 | 0.00 | 0.08 | 0.08 | 85 | 1011.8 |
| 20260831164559 | 62 | 240 | 6.1 | 13.9 | 0.00 | 0.08 | 0.08 | 85 | 1011.6 |
| 20260831164057 | 62 | 221 | 6.1 | 12.2 | 0.00 | 0.08 | 0.08 | 85 | 1011.6 |
| 20260831163557 | 62 | 232 | 7.0 | 12.2 | 0.00 | 0.08 | 0.08 | 85 | 1011.4 |
| 20260831163103 | 62 | 222 | 2.6 | 7.0 | 0.00 | 0.08 | 0.08 | 86 | 1011.4 |
| 20260831162558 | 62 | 0 | 2.6 | 9.6 | 0.00 | 0.08 | 0.08 | 86 | 1011.3 |
| 20260831162057 | 62 | 198 | 4.3 | 9.6 | 0.00 | 0.08 | 0.08 | 85 | 1011.2 |
| 20260831161608 | 63 | 204 | 4.3 | 9.6 | 0.00 | 0.08 | 0.08 | 85 | 1011.2 |
| 20260831161057 | 63 | 203 | 3.5 | 8.7 | 0.00 | 0.08 | 0.08 | 85 | 1011.0 |
| 20260831160601 | 63 | 215 | 4.3 | 8.7 | 0.00 | 0.08 | 0.08 | 85 | 1011.0 |
| 20260831160109 | 63 | 224 | 4.3 | 8.7 | 0.00 | 0.08 | 0.08 | 85 | 1011.1 |
| 20260831155558 | 63 | 230 | 2.6 | 8.7 | 0.00 | 0.08 | 0.08 | 85 | 1011.0 |
| 20260831155102 | 62 | 238 | 3.5 | 10.4 | 0.00 | 0.08 | 0.08 | 86 | 1011.0 |
| 20260831154629 | 62 | 223 | 4.3 | 10.4 | 0.01 | 0.08 | 0.08 | 85 | 1011.0 |
| 20260831154058 | 62 | 225 | 4.3 | 10.4 | 0.06 | 0.08 | 0.08 | 85 | 1011.0 |
| 20260831153557 | 62 | 225 | 4.3 | 10.4 | 0.06 | 0.08 | 0.08 | 85 | 1011.0 |
| 20260831153059 | 62 | 227 | 4.3 | 10.4 | 0.06 | 0.08 | 0.08 | 85 | 1011.1 |
| 20260831152558 | 62 | 239 | 3.5 | 8.7 | 0.06 | 0.08 | 0.08 | 85 | 1011.0 |
| 20260831152057 | 62 | 236 | 4.3 | 8.7 | 0.06 | 0.08 | 0.08 | 84 | 1011.0 |
| 20260831151605 | 63 | 253 | 1.7 | 7.8 | 0.06 | 0.08 | 0.08 | 85 | 1010.9 |
| 20260831151057 | 63 | 223 | 3.5 | 9.6 | 0.06 | 0.08 | 0.08 | 85 | 1010.9 |
| 20260831150557 | 63 | 229 | 5.2 | 9.6 | 0.06 | 0.08 | 0.08 | 82 | 1011.1 |
| 20260831150112 | 63 | 234 | 4.3 | 13.9 | 0.05 | 0.07 | 0.07 | 80 | 1011.2 |
| 20260831145556 | 64 | 239 | 5.2 | 17.4 | 0.05 | 0.07 | 0.07 | 77 | 1011.0 |
| 20260831145058 | 65 | 250 | 7.8 | 31.3 | 0.05 | 0.07 | 0.07 | 75 | 1011.1 |
| 20260831144606 | 67 | 244 | 13.0 | 31.3 | 0.04 | 0.07 | 0.07 | 70 | 1010.9 |
| 20260831144057 | 70 | 236 | 13.0 | 31.3 | 0.00 | 0.02 | 0.02 | 62 | 1010.9 |
| 20260831143557 | 71 | 274 | 4.3 | 12.2 | 0.00 | 0.02 | 0.02 | 62 | 1010.4 |
| 20260831143105 | 71 | 241 | 6.1 | 13.0 | 0.00 | 0.02 | 0.02 | 61 | 1010.3 |
| 20260831142558 | 71 | 259 | 4.3 | 13.0 | 0.00 | 0.02 | 0.02 | 60 | 1010.4 |
| 20260831142058 | 72 | 238 | 6.1 | 13.9 | 0.00 | 0.02 | 0.02 | 59 | 1010.4 |
| 20260831141614 | 72 | 243 | 7.8 | 13.9 | 0.00 | 0.02 | 0.02 | 59 | 1010.4 |
| 20260831141059 | 73 | 256 | 5.2 | 13.9 | 0.00 | 0.02 | 0.02 | 61 | 1010.2 |
| 20260831140557 | 73 | 240 | 5.2 | 13.9 | 0.00 | 0.02 | 0.02 | 62 | 1010.3 |
| 20260831140105 | 73 | 247 | 5.2 | 14.8 | 0.02 | 0.02 | 0.02 | 63 | 1010.2 |
| 20260831135557 | 73 | 239 | 7.8 | 14.8 | 0.02 | 0.02 | 0.02 | 66 | 1010.2 |
| 20260831135057 | 72 | 273 | 3.5 | 11.3 | 0.02 | 0.02 | 0.02 | 70 | 1010.2 |
| 20260831134606 | 71 | 243 | 7.0 | 11.3 | 0.02 | 0.02 | 0.02 | 69 | 1010.2 |
| 20260831134056 | 70 | 242 | 4.3 | 13.0 | 0.02 | 0.02 | 0.02 | 71 | 1010.3 |
| 20260831133558 | 69 | 261 | 4.3 | 13.0 | 0.02 | 0.02 | 0.02 | 73 | 1010.3 |
| 20260831133106 | 69 | 248 | 6.1 | 13.0 | 0.02 | 0.02 | 0.02 | 74 | 1010.2 |
| 20260831132557 | 68 | 234 | 3.5 | 7.0 | 0.02 | 0.02 | 0.02 | 77 | 1010.2 |
| 20260831132057 | 67 | 255 | 3.5 | 12.2 | 0.02 | 0.02 | 0.02 | 80 | 1010.3 |
| 20260831131606 | 67 | 243 | 4.3 | 12.2 | 0.02 | 0.02 | 0.02 | 76 | 1010.4 |
| 20260831131057 | 68 | 253 | 6.1 | 22.6 | 0.02 | 0.02 | 0.02 | 72 | 1010.4 |
| 20260831130557 | 70 | 263 | 8.7 | 22.6 | 0.02 | 0.02 | 0.02 | 71 | 1010.4 |
| 20260831130104 | 72 | 238 | 13.0 | 21.7 | 0.00 | 0.00 | 0.00 | 62 | 1010.6 |
| 20260831125558 | 73 | 360 | 10.4 | 17.4 | 0.00 | 0.00 | 0.00 | 56 | 1010.3 |
| 20260831125056 | 74 | 360 | 7.8 | 16.5 | 0.00 | 0.00 | 0.00 | 55 | 1010.1 |
| 20260831124559 | 75 | 360 | 6.1 | 16.5 | 0.00 | 0.00 | 0.00 | 53 | 1010.1 |
| 20260831124057 | 76 | 223 | 5.2 | 19.1 | 0.00 | 0.00 | 0.00 | 51 | 1010.1 |
| 20260831123556 | 76 | 360 | 7.0 | 19.1 | 0.00 | 0.00 | 0.00 | 49 | 1010.0 |
| 20260831123110 | 76 | 360 | 8.7 | 18.2 | 0.00 | 0.00 | 0.00 | 50 | 1010.0 |
| 20260831122559 | 76 | 360 | 9.6 | 20.9 | 0.00 | 0.00 | 0.00 | 50 | 1010.0 |
| 20260831122057 | 75 | 222 | 9.6 | 20.9 | 0.00 | 0.00 | 0.00 | 54 | 1010.0 |
| 20260831121609 | 74 | 360 | 9.6 | 18.2 | 0.00 | 0.00 | 0.00 | 54 | 1010.0 |
| 20260831121059 | 74 | 360 | 7.0 | 16.5 | 0.00 | 0.00 | 0.00 | 54 | 1009.9 |
| 20260831120556 | 74 | 219 | 8.7 | 16.5 | 0.00 | 0.00 | 0.00 | 54 | 1010.1 |
| 20260831120124 | 74 | 229 | 7.8 | 19.1 | 0.00 | 0.00 | 0.00 | 55 | 1010.2 |
| 20260831115557 | 74 | 360 | 8.7 | 19.1 | 0.00 | 0.00 | 0.00 | 54 | 1010.1 |
| 20260831115059 | 75 | 249 | 9.6 | 19.1 | 0.00 | 0.00 | 0.00 | 54 | 1010.1 |
| 20260831114600 | 75 | 231 | 8.7 | 19.1 | 0.00 | 0.00 | 0.00 | 54 | 1010.0 |
| 20260831114057 | 76 | 360 | 7.8 | 19.1 | 0.00 | 0.00 | 0.00 | 53 | 1010.1 |
| 20260831113557 | 77 | 200 | 8.7 | 18.2 | 0.00 | 0.00 | 0.00 | 52 | 1010.1 |
| 20260831113107 | 76 | 180 | 9.6 | 18.2 | 0.00 | 0.00 | 0.00 | 51 | 1010.2 |
| 20260831112600 | 76 | 360 | 7.0 | 18.2 | 0.00 | 0.00 | 0.00 | 55 | 1010.3 |
| 20260831112058 | 75 | 360 | 8.7 | 18.2 | 0.00 | 0.00 | 0.00 | 56 | 1010.3 |
| 20260831111614 | 75 | 360 | 8.7 | 17.4 | 0.00 | 0.00 | 0.00 | 56 | 1010.3 |
| 20260831111057 | 74 | 360 | 7.0 | 15.6 | 0.00 | 0.00 | 0.00 | 59 | 1010.3 |
| 20260831110557 | 73 | 360 | 5.2 | 13.0 | 0.00 | 0.00 | 0.00 | 58 | 1010.3 |
| 20260831110104 | 73 | 360 | 6.1 | 14.8 | 0.00 | 0.00 | 0.00 | 58 | 1010.4 |
| 20260831105558 | 73 | 232 | 7.8 | 14.8 | 0.00 | 0.00 | 0.00 | 58 | 1010.5 |
| 20260831105100 | 73 | 360 | 8.7 | 14.8 | 0.00 | 0.00 | 0.00 | 59 | 1010.5 |
| 20260831104604 | 73 | 360 | 6.1 | 13.9 | 0.00 | 0.00 | 0.00 | 59 | 1010.6 |
| 20260831104059 | 73 | 360 | 6.1 | 13.9 | 0.00 | 0.00 | 0.00 | 58 | 1010.6 |
| 20260831103558 | 73 | 360 | 8.7 | 14.8 | 0.00 | 0.00 | 0.00 | 58 | 1010.6 |
| 20260831103108 | 73 | 360 | 8.7 | 16.5 | 0.00 | 0.00 | 0.00 | 60 | 1010.6 |
| 20260831102557 | 72 | 360 | 8.7 | 16.5 | 0.00 | 0.00 | 0.00 | 60 | 1010.6 |
| 20260831102057 | 72 | 240 | 7.0 | 13.9 | 0.00 | 0.00 | 0.00 | 60 | 1010.7 |
| 20260831101606 | 73 | 360 | 6.1 | 13.9 | 0.00 | 0.00 | 0.00 | 60 | 1010.7 |
| 20260831101058 | 73 | 259 | 6.1 | 15.6 | 0.00 | 0.00 | 0.00 | 60 | 1010.7 |
| 20260831100559 | 73 | 252 | 9.6 | 15.6 | 0.00 | 0.00 | 0.00 | 61 | 1010.8 |
| 20260831100114 | 73 | 254 | 7.8 | 17.4 | 0.00 | 0.00 | 0.00 | 60 | 1010.7 |
| 20260831095559 | 74 | 192 | 8.7 | 17.4 | 0.00 | 0.00 | 0.00 | 60 | 1010.9 |
| 20260831095056 | 74 | 245 | 8.7 | 17.4 | 0.00 | 0.00 | 0.00 | 60 | 1010.9 |
| 20260831094606 | 74 | 360 | 9.6 | 16.5 | 0.00 | 0.00 | 0.00 | 62 | 1010.8 |
| 20260831094057 | 73 | 360 | 7.0 | 16.5 | 0.00 | 0.00 | 0.00 | 65 | 1010.9 |
| 20260831093558 | 73 | 360 | 7.8 | 20.9 | 0.00 | 0.00 | 0.00 | 63 | 1010.9 |
| 20260831093109 | 72 | 360 | 8.7 | 20.9 | 0.00 | 0.00 | 0.00 | 65 | 1010.9 |
| 20260831092558 | 72 | 360 | 7.0 | 20.0 | 0.00 | 0.00 | 0.00 | 65 | 1010.9 |
| 20260831092058 | 72 | 266 | 8.7 | 20.0 | 0.00 | 0.00 | 0.00 | 66 | 1011.0 |
| 20260831091605 | 71 | 360 | 3.5 | 16.5 | 0.00 | 0.00 | 0.00 | 69 | 1011.0 |
| 20260831091059 | 71 | 360 | 11.3 | 16.5 | 0.00 | 0.00 | 0.00 | 68 | 1010.9 |
| 20260831090557 | 71 | 360 | 9.6 | 16.5 | 0.00 | 0.00 | 0.00 | 70 | 1011.0 |
| 20260831090109 | 70 | 360 | 7.0 | 16.5 | 0.00 | 0.00 | 0.00 | 71 | 1010.9 |
| 20260831085559 | 69 | 360 | 6.1 | 14.8 | 0.00 | 0.00 | 0.00 | 73 | 1010.9 |
| 20260831085058 | 68 | 360 | 7.8 | 14.8 | 0.00 | 0.00 | 0.00 | 74 | 1010.8 |
| 20260831084609 | 68 | 241 | 7.0 | 14.8 | 0.00 | 0.00 | 0.00 | 73 | 1010.8 |
| 20260831084057 | 68 | 225 | 6.1 | 15.6 | 0.00 | 0.00 | 0.00 | 73 | 1010.8 |
| 20260831083559 | 68 | 246 | 7.8 | 15.6 | 0.00 | 0.00 | 0.00 | 73 | 1010.8 |
| 20260831083108 | 68 | 244 | 6.1 | 14.8 | 0.00 | 0.00 | 0.00 | 73 | 1010.9 |
| 20260831082557 | 68 | 291 | 7.8 | 14.8 | 0.00 | 0.00 | 0.00 | 73 | 1011.0 |
| 20260831082058 | 69 | 241 | 7.0 | 12.2 | 0.00 | 0.00 | 0.00 | 73 | 1011.0 |
| 20260831081605 | 69 | 260 | 4.3 | 10.4 | 0.00 | 0.00 | 0.00 | 74 | 1011.0 |
| 20260831081057 | 68 | 249 | 5.2 | 10.4 | 0.00 | 0.00 | 0.00 | 74 | 1010.9 |
| 20260831080556 | 68 | 245 | 6.1 | 12.2 | 0.00 | 0.00 | 0.00 | 73 | 1010.9 |
| 20260831080137 | 68 | 249 | 6.1 | 12.2 | 0.00 | 0.00 | 0.00 | 74 | 1010.9 |
| 20260831075557 | 68 | 210 | 4.3 | 11.3 | 0.00 | 0.00 | 0.00 | 76 | 1010.9 |
| 20260831075057 | 67 | 240 | 4.3 | 11.3 | 0.00 | 0.00 | 0.00 | 77 | 1010.9 |
| 20260831074601 | 67 | 217 | 3.5 | 12.2 | 0.00 | 0.00 | 0.00 | 76 | 1010.9 |
| 20260831074058 | 67 | 225 | 7.8 | 13.0 | 0.00 | 0.00 | 0.00 | 76 | 1010.9 |
| 20260831073557 | 67 | 360 | 6.1 | 13.0 | 0.00 | 0.00 | 0.00 | 75 | 1010.9 |
| 20260831073117 | 67 | 235 | 7.8 | 13.0 | 0.00 | 0.00 | 0.00 | 74 | 1010.9 |
| 20260831072558 | 67 | 360 | 7.8 | 13.0 | 0.00 | 0.00 | 0.00 | 74 | 1010.8 |
| 20260831072056 | 68 | 213 | 7.8 | 13.0 | 0.00 | 0.00 | 0.00 | 74 | 1010.8 |
| 20260831071616 | 68 | 215 | 7.0 | 14.8 | 0.00 | 0.00 | 0.00 | 73 | 1010.7 |
| 20260831071059 | 68 | 212 | 7.0 | 14.8 | 0.00 | 0.00 | 0.00 | 73 | 1010.8 |
| 20260831070557 | 68 | 234 | 6.1 | 12.2 | 0.00 | 0.00 | 0.00 | 74 | 1010.8 |
| 20260831070112 | 68 | 229 | 5.2 | 13.0 | 0.00 | 0.00 | 0.00 | 75 | 1010.8 |
| 20260831065558 | 67 | 237 | 4.3 | 13.0 | 0.00 | 0.00 | 0.00 | 76 | 1010.8 |
| 20260831065056 | 67 | 245 | 5.2 | 11.3 | 0.00 | 0.00 | 0.00 | 75 | 1010.9 |
| 20260831064608 | 66 | 252 | 5.2 | 11.3 | 0.00 | 0.00 | 0.00 | 76 | 1010.8 |
| 20260831064055 | 66 | 212 | 6.1 | 11.3 | 0.00 | 0.00 | 0.00 | 77 | 1010.7 |
| 20260831063559 | 65 | 240 | 4.3 | 9.6 | 0.00 | 0.00 | 0.00 | 78 | 1010.7 |
| 20260831063111 | 65 | 250 | 3.5 | 8.7 | 0.00 | 0.00 | 0.00 | 79 | 1010.6 |
| 20260831062557 | 64 | 201 | 2.6 | 8.7 | 0.00 | 0.00 | 0.00 | 80 | 1010.5 |
| 20260831062056 | 63 | 211 | 3.5 | 8.7 | 0.00 | 0.00 | 0.00 | 80 | 1010.5 |
| 20260831061608 | 63 | 196 | 3.5 | 8.7 | 0.00 | 0.00 | 0.00 | 81 | 1010.4 |
| 20260831061059 | 63 | 360 | 3.5 | 8.7 | 0.00 | 0.00 | 0.00 | 81 | 1010.5 |
| 20260831060556 | 62 | 217 | 3.5 | 8.7 | 0.00 | 0.00 | 0.00 | 82 | 1010.4 |
| 20260831060110 | 62 | 215 | 4.3 | 8.7 | 0.00 | 0.00 | 0.00 | 82 | 1010.3 |
| 20260831055556 | 61 | 360 | 4.3 | 8.7 | 0.00 | 0.00 | 0.00 | 82 | 1010.3 |
| 20260831055056 | 61 | 360 | 4.3 | 13.0 | 0.00 | 0.00 | 0.00 | 83 | 1010.2 |
| 20260831054627 | 60 | 360 | 4.3 | 13.0 | 0.00 | 0.00 | 0.00 | 83 | 1010.1 |
| 20260831054056 | 60 | 360 | 1.7 | 5.2 | 0.00 | 0.00 | 0.00 | 83 | 1010.1 |
| 20260831053556 | 60 | 360 | 1.7 | 4.3 | 0.00 | 0.00 | 0.00 | 83 | 1010.2 |
| 20260831053109 | 60 | 360 | 1.7 | 4.3 | 0.00 | 0.00 | 0.00 | 83 | 1010.2 |
| 20260831052556 | 60 | 360 | 1.7 | 4.3 | 0.00 | 0.00 | 0.00 | 83 | 1010.3 |
| 20260831052059 | 60 | 360 | 1.7 | 7.0 | 0.00 | 0.00 | 0.00 | 82 | 1010.3 |
| 20260831051608 | 60 | 360 | 2.6 | 7.0 | 0.00 | 0.00 | 0.00 | 82 | 1010.2 |
| 20260831051058 | 60 | 360 | 2.6 | 4.3 | 0.00 | 0.00 | 0.00 | 82 | 1010.3 |
| 20260831050557 | 60 | 360 | 1.7 | 4.3 | 0.00 | 0.00 | 0.00 | 82 | 1010.2 |
| 20260831050110 | 60 | 360 | 1.7 | 3.5 | 0.00 | 0.00 | 0.00 | 81 | 1010.2 |
| 20260831045559 | 60 | 360 | 0.9 | 3.5 | 0.00 | 0.03 | 0.00 | 81 | 1010.1 |
| 20260831045056 | 60 | 360 | 1.7 | 7.0 | 0.00 | 0.03 | 0.00 | 81 | 1010.0 |
| 20260831044607 | 60 | 360 | 1.7 | 7.0 | 0.00 | 0.03 | 0.00 | 81 | 1009.9 |
| 20260831044056 | 60 | 360 | 2.6 | 7.0 | 0.00 | 0.03 | 0.00 | 80 | 1009.9 |
| 20260831043558 | 61 | 360 | 1.7 | 4.3 | 0.00 | 0.03 | 0.00 | 80 | 1010.0 |
| 20260831043106 | 61 | 360 | 1.7 | 4.3 | 0.00 | 0.03 | 0.00 | 80 | 1010.0 |
| 20260831042558 | 61 | 360 | 0.9 | 4.3 | 0.00 | 0.03 | 0.00 | 79 | 1009.9 |
| 20260831042056 | 61 | 360 | 0.9 | 4.3 | 0.00 | 0.03 | 0.00 | 79 | 1009.8 |
| 20260831041611 | 61 | 360 | 1.7 | 7.8 | 0.00 | 0.03 | 0.00 | 79 | 1009.8 |
| 20260831041059 | 61 | 360 | 0.9 | 7.8 | 0.00 | 0.03 | 0.00 | 79 | 1009.9 |
| 20260831040555 | 61 | 360 | 2.6 | 7.8 | 0.00 | 0.03 | 0.00 | 79 | 1010.1 |
| 20260831040111 | 61 | 360 | 2.6 | 5.2 | 0.00 | 0.03 | 0.00 | 78 | 1010.0 |
| 20260831035559 | 61 | 360 | 2.6 | 7.0 | 0.00 | 0.03 | 0.00 | 78 | 1009.9 |
| 20260831035056 | 61 | 360 | 2.6 | 7.0 | 0.00 | 0.03 | 0.00 | 78 | 1009.9 |
| 20260831034604 | 61 | 360 | 2.6 | 7.0 | 0.00 | 0.03 | 0.00 | 78 | 1009.8 |
| 20260831034057 | 61 | 360 | 2.6 | 5.2 | 0.00 | 0.03 | 0.00 | 78 | 1010.0 |
| 20260831033559 | 61 | 360 | 1.7 | 7.0 | 0.00 | 0.03 | 0.00 | 78 | 1010.0 |
| 20260831033059 | 61 | 360 | 2.6 | 7.0 | 0.00 | 0.03 | 0.00 | 78 | 1010.2 |
| 20260831032556 | 61 | 360 | 1.7 | 5.2 | 0.00 | 0.03 | 0.00 | 78 | 1010.2 |
| 20260831032057 | 61 | 360 | 1.7 | 7.0 | 0.00 | 0.03 | 0.00 | 78 | 1010.3 |
| 20260831031607 | 61 | 360 | 2.6 | 7.0 | 0.00 | 0.03 | 0.00 | 78 | 1010.3 |
| 20260831031057 | 61 | 360 | 2.6 | 7.8 | 0.00 | 0.03 | 0.00 | 78 | 1010.2 |
| 20260831030556 | 61 | 360 | 2.6 | 7.8 | 0.00 | 0.03 | 0.00 | 78 | 1010.1 |
| 20260831025557 | 61 | 360 | 3.5 | 7.0 | 0.00 | 0.03 | 0.00 | 79 | 1010.2 |
| 20260831025057 | 61 | 360 | 2.6 | 5.2 | 0.00 | 0.03 | 0.00 | 79 | 1010.2 |
| 20260831024606 | 61 | 360 | 2.6 | 5.2 | 0.00 | 0.03 | 0.00 | 79 | 1010.6 |
| 20260831024057 | 61 | 360 | 1.7 | 7.0 | 0.00 | 0.03 | 0.00 | 79 | 1010.8 |
| 20260831023556 | 61 | 360 | 2.6 | 7.0 | 0.00 | 0.03 | 0.00 | 79 | 1011.0 |
| 20260831023103 | 61 | 360 | 2.6 | 5.2 | 0.00 | 0.03 | 0.00 | 79 | 1011.1 |
| 20260831022600 | 61 | 360 | 1.7 | 7.0 | 0.00 | 0.03 | 0.00 | 79 | 1011.1 |
| 20260831022057 | 61 | 360 | 2.6 | 7.0 | 0.00 | 0.03 | 0.00 | 78 | 1010.9 |
| 20260831021604 | 61 | 360 | 2.6 | 7.0 | 0.00 | 0.03 | 0.00 | 78 | 1011.0 |
| 20260831021101 | 61 | 360 | 2.6 | 7.8 | 0.00 | 0.03 | 0.00 | 78 | 1011.0 |
| 20260831020558 | 61 | 360 | 3.5 | 7.8 | 0.00 | 0.03 | 0.00 | 78 | 1010.9 |
| 20260831020104 | 61 | 360 | 2.6 | 7.0 | 0.00 | 0.03 | 0.00 | 78 | 1010.9 |
| 20260831015601 | 61 | 360 | 1.7 | 7.0 | 0.00 | 0.03 | 0.00 | 78 | 1010.9 |
| 20260831015057 | 61 | 360 | 3.5 | 7.0 | 0.00 | 0.03 | 0.00 | 78 | 1010.9 |
| 20260831014605 | 61 | 360 | 2.6 | 5.2 | 0.00 | 0.03 | 0.00 | 78 | 1011.0 |
| 20260831014057 | 61 | 360 | 1.7 | 5.2 | 0.00 | 0.03 | 0.00 | 78 | 1011.2 |
| 20260831013557 | 61 | 360 | 2.6 | 7.0 | 0.00 | 0.03 | 0.00 | 78 | 1011.3 |
| 20260831013114 | 61 | 360 | 3.5 | 7.0 | 0.00 | 0.03 | 0.00 | 78 | 1011.4 |
| 20260831012558 | 61 | 360 | 3.5 | 7.0 | 0.00 | 0.03 | 0.00 | 78 | 1011.5 |
| 20260831012058 | 61 | 360 | 3.5 | 7.0 | 0.00 | 0.03 | 0.00 | 78 | 1011.3 |
| 20260831011600 | 61 | 360 | 3.5 | 7.0 | 0.00 | 0.03 | 0.00 | 78 | 1011.2 |
| 20260831011057 | 61 | 360 | 2.6 | 7.0 | 0.00 | 0.03 | 0.00 | 78 | 1011.3 |
| 20260831010557 | 61 | 360 | 0.9 | 4.3 | 0.00 | 0.03 | 0.00 | 79 | 1011.3 |
| 20260831010123 | 61 | 360 | 1.7 | 5.2 | 0.00 | 0.03 | 0.00 | 79 | 1011.4 |
| 20260831005557 | 61 | 360 | 2.6 | 7.0 | 0.00 | 0.03 | 0.00 | 79 | 1011.5 |
| 20260831005058 | 60 | 360 | 2.6 | 7.0 | 0.00 | 0.03 | 0.00 | 79 | 1011.6 |
| 20260831004611 | 60 | 360 | 3.5 | 7.0 | 0.00 | 0.03 | 0.00 | 80 | 1011.5 |
| 20260831004101 | 60 | 360 | 2.6 | 5.2 | 0.00 | 0.03 | 0.00 | 80 | 1011.6 |
| 20260831003557 | 60 | 360 | 1.7 | 5.2 | 0.00 | 0.03 | 0.00 | 80 | 1011.5 |
| 20260831003108 | 60 | 360 | 1.7 | 4.3 | 0.00 | 0.03 | 0.00 | 80 | 1011.7 |
| 20260831002557 | 60 | 360 | 1.7 | 4.3 | 0.00 | 0.03 | 0.00 | 80 | 1011.7 |
| 20260831002057 | 60 | 360 | 1.7 | 5.2 | 0.00 | 0.03 | 0.00 | 80 | 1011.7 |
| 20260831001602 | 60 | 360 | 2.6 | 5.2 | 0.00 | 0.03 | 0.00 | 80 | 1011.7 |
| 20260831001057 | 60 | 360 | 1.7 | 5.2 | 0.00 | 0.03 | 0.00 | 80 | 1011.7 |
| 20260831000557 | 60 | 360 | 1.7 | 5.2 | 0.00 | 0.03 | 0.00 | 80 | 1011.8 |
| 20260831000103 | 60 | 360 | 1.7 | 4.3 | 0.00 | 0.03 | 0.00 | 80 | 1011.9 |
| 20260830235559 | 60 | 360 | 0.9 | 4.3 | 0.00 | 0.03 | 0.00 | 80 | 1011.9 |
| 20260830235058 | 60 | 360 | 0.9 | 5.2 | 0.00 | 0.03 | 0.00 | 80 | 1011.9 |
| 20260830234600 | 60 | 360 | 0.9 | 5.2 | 0.00 | 0.03 | 0.00 | 80 | 1011.9 |
| 20260830234057 | 60 | 360 | 0.9 | 5.2 | 0.00 | 0.03 | 0.00 | 80 | 1012.0 |
| 20260830233557 | 60 | 360 | 1.7 | 4.3 | 0.00 | 0.03 | 0.00 | 80 | 1012.0 |
| 20260830233104 | 60 | 360 | 1.7 | 5.2 | 0.00 | 0.03 | 0.00 | 80 | 1012.0 |
| 20260830232558 | 60 | 360 | 2.6 | 5.2 | 0.00 | 0.03 | 0.00 | 80 | 1012.1 |
| 20260830232057 | 61 | 360 | 1.7 | 5.2 | 0.00 | 0.03 | 0.00 | 81 | 1012.0 |
| 20260830231607 | 61 | 360 | 2.6 | 7.0 | 0.00 | 0.03 | 0.00 | 81 | 1012.1 |
| 20260830231058 | 61 | 360 | 2.6 | 7.0 | 0.00 | 0.03 | 0.00 | 81 | 1012.2 |
| 20260830230558 | 60 | 360 | 2.6 | 7.0 | 0.00 | 0.03 | 0.00 | 81 | 1012.3 |
| 20260830230106 | 60 | 360 | 2.6 | 5.2 | 0.00 | 0.03 | 0.00 | 81 | 1012.3 |
| 20260830225558 | 60 | 360 | 2.6 | 7.0 | 0.00 | 0.04 | 0.00 | 81 | 1012.4 |
| 20260830225059 | 60 | 360 | 1.7 | 7.0 | 0.00 | 0.04 | 0.00 | 81 | 1012.3 |
| 20260830224607 | 61 | 360 | 1.7 | 3.5 | 0.00 | 0.04 | 0.00 | 81 | 1012.3 |
| 20260830224058 | 61 | 360 | 0.0 | 2.6 | 0.00 | 0.04 | 0.00 | 80 | 1012.3 |
| 20260830223558 | 61 | 0 | 0.0 | 3.5 | 0.00 | 0.04 | 0.00 | 80 | 1012.3 |
| 20260830223105 | 61 | 360 | 0.9 | 3.5 | 0.00 | 0.04 | 0.00 | 79 | 1012.3 |
| 20260830222558 | 61 | 360 | 0.9 | 2.6 | 0.00 | 0.04 | 0.00 | 79 | 1012.3 |
| 20260830222058 | 62 | 360 | 0.0 | 1.7 | 0.00 | 0.04 | 0.00 | 78 | 1012.3 |
| 20260830221605 | 62 | 0 | 0.0 | 2.6 | 0.00 | 0.04 | 0.00 | 78 | 1012.3 |
| 20260830221058 | 62 | 360 | 0.9 | 2.6 | 0.00 | 0.04 | 0.00 | 78 | 1012.3 |
| 20260830220558 | 62 | 360 | 0.9 | 2.6 | 0.00 | 0.04 | 0.00 | 78 | 1012.3 |
| 20260830220103 | 63 | 360 | 0.9 | 2.6 | 0.00 | 0.04 | 0.00 | 77 | 1012.4 |
| 20260830215601 | 63 | 0 | 0.0 | 1.7 | 0.00 | 0.04 | 0.04 | 77 | 1012.3 |
| 20260830215057 | 63 | 360 | 0.9 | 1.7 | 0.00 | 0.04 | 0.04 | 77 | 1012.4 |
| 20260830214605 | 63 | 360 | 0.0 | 0.0 | 0.00 | 0.04 | 0.04 | 76 | 1012.4 |
| 20260830214057 | 64 | 0 | 0.0 | 0.0 | 0.00 | 0.04 | 0.04 | 76 | 1012.4 |
| 20260830213558 | 64 | 0 | 0.0 | 1.7 | 0.00 | 0.04 | 0.04 | 76 | 1012.4 |
| 20260830213101 | 64 | 0 | 0.0 | 1.7 | 0.00 | 0.04 | 0.04 | 75 | 1012.4 |
| 20260830212557 | 65 | 0 | 0.0 | 1.7 | 0.00 | 0.04 | 0.04 | 74 | 1012.4 |
| 20260830212058 | 65 | 0 | 0.0 | 2.6 | 0.00 | 0.04 | 0.04 | 73 | 1012.4 |
| 20260830211600 | 65 | 258 | 0.0 | 2.6 | 0.00 | 0.04 | 0.04 | 73 | 1012.4 |
| 20260830211058 | 65 | 0 | 0.9 | 2.6 | 0.00 | 0.04 | 0.04 | 72 | 1012.4 |
| 20260830210558 | 66 | 0 | 0.9 | 2.6 | 0.00 | 0.04 | 0.04 | 72 | 1012.4 |
| 20260830210115 | 66 | 258 | 0.0 | 2.6 | 0.00 | 0.04 | 0.04 | 71 | 1012.4 |
| 20260830205559 | 66 | 258 | 0.0 | 2.6 | 0.00 | 0.04 | 0.04 | 71 | 1012.5 |
| 20260830205057 | 66 | 360 | 0.9 | 4.3 | 0.00 | 0.04 | 0.04 | 71 | 1012.5 |
| 20260830204605 | 66 | 360 | 0.9 | 4.3 | 0.00 | 0.04 | 0.04 | 71 | 1012.5 |
| 20260830204057 | 66 | 360 | 0.9 | 3.5 | 0.00 | 0.04 | 0.04 | 71 | 1012.4 |
| 20260830203557 | 66 | 0 | 0.9 | 4.3 | 0.00 | 0.04 | 0.04 | 71 | 1012.5 |
| 20260830203103 | 66 | 360 | 1.7 | 5.2 | 0.00 | 0.04 | 0.04 | 71 | 1012.4 |
| 20260830202557 | 66 | 360 | 1.7 | 5.2 | 0.00 | 0.04 | 0.04 | 71 | 1012.5 |
| 20260830202058 | 66 | 360 | 1.7 | 3.5 | 0.00 | 0.04 | 0.04 | 71 | 1012.5 |
| 20260830201612 | 66 | 360 | 0.9 | 4.3 | 0.00 | 0.04 | 0.04 | 71 | 1012.5 |
| 20260830201101 | 66 | 360 | 1.7 | 9.6 | 0.00 | 0.04 | 0.04 | 71 | 1012.5 |
| 20260830200557 | 67 | 360 | 1.7 | 9.6 | 0.00 | 0.04 | 0.04 | 71 | 1012.5 |
| 20260830195557 | 67 | 360 | 2.6 | 5.2 | 0.00 | 0.04 | 0.04 | 71 | 1012.6 |
| 20260830195057 | 67 | 360 | 2.6 | 5.2 | 0.00 | 0.04 | 0.04 | 71 | 1012.7 |
| 20260830194613 | 67 | 360 | 2.6 | 5.2 | 0.00 | 0.04 | 0.04 | 71 | 1012.7 |
| 20260830194057 | 67 | 360 | 2.6 | 5.2 | 0.00 | 0.04 | 0.04 | 70 | 1012.7 |
| 20260830193601 | 67 | 360 | 2.6 | 7.0 | 0.00 | 0.04 | 0.04 | 70 | 1012.7 |
| 20260830193101 | 67 | 360 | 2.6 | 7.0 | 0.00 | 0.04 | 0.04 | 70 | 1012.7 |
| 20260830192559 | 67 | 360 | 2.6 | 7.8 | 0.00 | 0.04 | 0.04 | 70 | 1012.8 |
| 20260830192058 | 67 | 360 | 3.5 | 7.8 | 0.00 | 0.04 | 0.04 | 70 | 1012.7 |
| 20260830191609 | 67 | 360 | 3.5 | 7.8 | 0.00 | 0.04 | 0.04 | 70 | 1012.7 |
| 20260830191057 | 67 | 360 | 3.5 | 7.8 | 0.00 | 0.04 | 0.04 | 69 | 1012.7 |
| 20260830190558 | 67 | 360 | 4.3 | 7.8 | 0.00 | 0.04 | 0.04 | 69 | 1012.6 |
| 20260830190110 | 67 | 360 | 3.5 | 7.8 | 0.00 | 0.04 | 0.04 | 69 | 1012.7 |
| 20260830185558 | 67 | 360 | 3.5 | 7.0 | 0.00 | 0.04 | 0.04 | 69 | 1012.6 |
| 20260830185221 | 67 | 360 | 3.5 | 7.8 | 0.00 | 0.04 | 0.04 | 69 | 1012.5 |
| 20260830184606 | 67 | 360 | 2.6 | 7.8 | 0.00 | 0.04 | 0.04 | 69 | 1012.5 |
| 20260830184056 | 67 | 360 | 3.5 | 7.8 | 0.00 | 0.04 | 0.04 | 69 | 1012.5 |
| 20260830183558 | 67 | 360 | 3.5 | 7.8 | 0.00 | 0.04 | 0.04 | 68 | 1012.5 |
| 20260830183101 | 68 | 360 | 3.5 | 7.8 | 0.00 | 0.04 | 0.04 | 68 | 1012.4 |
| 20260830182558 | 68 | 360 | 2.6 | 10.4 | 0.00 | 0.04 | 0.04 | 68 | 1012.4 |
| 20260830182058 | 68 | 360 | 5.2 | 10.4 | 0.00 | 0.04 | 0.04 | 68 | 1012.4 |
| 20260830181603 | 68 | 360 | 5.2 | 10.4 | 0.00 | 0.04 | 0.04 | 67 | 1012.4 |
| 20260830181057 | 69 | 360 | 4.3 | 10.4 | 0.00 | 0.04 | 0.04 | 67 | 1012.3 |
| 20260830180558 | 69 | 360 | 3.5 | 9.6 | 0.00 | 0.04 | 0.04 | 67 | 1012.3 |
| 20260830180105 | 69 | 360 | 5.2 | 9.6 | 0.00 | 0.04 | 0.04 | 66 | 1012.3 |
| 20260830175557 | 69 | 360 | 6.1 | 12.2 | 0.00 | 0.04 | 0.04 | 66 | 1012.3 |
| 20260830175057 | 69 | 360 | 6.1 | 12.2 | 0.00 | 0.04 | 0.04 | 66 | 1012.2 |
| 20260830174637 | 69 | 360 | 6.1 | 12.2 | 0.00 | 0.04 | 0.04 | 66 | 1012.1 |
| 20260830174058 | 69 | 360 | 5.2 | 12.2 | 0.00 | 0.04 | 0.04 | 66 | 1012.1 |
| 20260830173558 | 69 | 360 | 4.3 | 9.6 | 0.00 | 0.04 | 0.04 | 67 | 1012.1 |
| 20260830173103 | 69 | 215 | 2.6 | 9.6 | 0.00 | 0.04 | 0.04 | 67 | 1012.1 |
| 20260830172557 | 69 | 360 | 4.3 | 9.6 | 0.00 | 0.04 | 0.04 | 67 | 1012.1 |
| 20260830172058 | 69 | 360 | 6.1 | 9.6 | 0.00 | 0.04 | 0.04 | 66 | 1012.1 |
| 20260830171614 | 69 | 360 | 3.5 | 9.6 | 0.00 | 0.04 | 0.04 | 66 | 1012.1 |
| 20260830171056 | 70 | 360 | 5.2 | 12.2 | 0.00 | 0.04 | 0.04 | 65 | 1012.0 |
| 20260830170557 | 70 | 360 | 5.2 | 12.2 | 0.00 | 0.04 | 0.04 | 65 | 1012.0 |